Hourly Data Report for June 13, 2021

BORDEN AWOS
ONTARIO
Current Station Operator: DND

44°16'20.000" N
79°54'42.000" W
222.50 m
611B002
71534
YBN

Download Data

Hourly Data (June 2021)
Hourly Data Report for June 13, 2021
TIME
LST
Temp Definition
°C
Dew Point Definition
°C
Rel Hum Definition
%
Precip. Amount Definition
mm

Wind Dir Definition
10's deg

Wind Spd Definition
km/h
Visibility Definition
km
Stn Press Definition
kPa
Hmdx Definition


Wind Chill Definition


Weather Definition


00:00 16.0 12.0 77   31 4 14.5 98.49     LegendNANA
01:00 16.6 13.0 79     0 14.5 98.48     LegendNANA
02:00 16.6 13.0 79     0 14.5 98.47     LegendNANA
03:00 17.4 13.0 75     0 14.5 98.46     LegendNANA
04:00 16.9 12.9 77   19 4 14.5 98.46     LegendNANA
05:00 15.6 12.5 82     0 14.5 98.47     LegendNANA
06:00 17.8 12.6 72     0 14.5 98.46     LegendNANA
07:00 21.0 13.2 61   18 7 14.5 98.45     LegendNANA
08:00 23.7 16.0 62   32 7 14.5 98.46 28   LegendNANA
09:00 25.2 16.1 57   1 15 14.5 98.47 30   LegendNANA
10:00 24.8 16.0 58   36 9 14.5 98.47 29   LegendNANA
11:00 25.6 15.3 53   3 17 14.5 98.46 30   LegendNANA
12:00 25.9 14.6 50   36 11 14.5 98.42 30   LegendNANA
13:00 25.6 14.1 49   35 13 14.5 98.40 29   LegendNANA
14:00 25.7 13.8 48   33 20 14.5 98.39 29   LegendNANA
15:00 25.5 13.6 48   31 17 14.5 98.35 29   LegendNANA
16:00 24.9 13.0 48   32 17 14.5 98.32 28   LegendNANA
17:00 24.0 13.0 50   32 20 14.5 98.28 27   LegendNANA
18:00 22.7 12.8 54   35 20 14.5 98.27 25   LegendNANA
19:00 21.5 13.2 59   34 9 14.5 98.27     LegendNANA
20:00 19.1 13.5 70     0 14.5 98.35     LegendNANA
21:00 17.4 11.9 70   23 6 14.5 98.31     LegendNANA
22:00 14.0 11.1 83   19 4 14.5 98.31     LegendNANA
23:00 14.0 11.1 83   21 4 14.5 98.28     LegendNANA

Notes on Data Quality.

Legend

  • E = Estimated
  • M = Missing
  • NA = Not Available*
  • [empty] = Indicates an unobserved value
Date modified: